Time,TemperatureF,DewpointF,PressureIn,WindDirection,WindDirectionDegrees,WindSpeedMPH,WindSpeedGustMPH,Humidity,HourlyPrecipIn,Conditions,Clouds,dailyrainin,SoftwareType,DateUTC
2013-02-26 00:00:00,31.4,15.6,30.12,NNE,26,0.0,0.0,52,0.00,,---,0.00,VWS V14.00,2013-02-26 08:00:00,
2013-02-26 00:09:00,31.5,15.2,30.12,NNE,26,0.0,0.0,50,0.00,,---,0.00,VWS V14.00,2013-02-26 08:09:00,
2013-02-26 00:14:00,29.2,14.4,30.12,NNE,26,0.0,0.0,54,0.00,,---,0.00,VWS V14.00,2013-02-26 08:14:00,
2013-02-26 00:19:00,28.0,14.1,30.12,NNE,26,0.0,0.0,56,0.00,,---,0.00,VWS V14.00,2013-02-26 08:19:00,
2013-02-26 00:24:00,27.4,14.0,30.12,NNE,26,0.0,0.0,56,0.00,,---,0.00,VWS V14.00,2013-02-26 08:24:00,
2013-02-26 00:29:00,27.3,14.3,30.13,NNE,26,4.0,6.0,58,0.00,,---,0.00,VWS V14.00,2013-02-26 08:29:00,
2013-02-26 00:34:00,26.5,13.9,30.13,NNE,28,5.0,7.0,58,0.00,,---,0.00,VWS V14.00,2013-02-26 08:34:00,
2013-02-26 00:39:00,26.1,13.9,30.12,NNE,28,0.0,5.0,60,0.00,,---,0.00,VWS V14.00,2013-02-26 08:39:00,
2013-02-26 00:44:00,26.8,14.2,30.12,NNE,28,5.0,5.0,58,0.00,,---,0.00,VWS V14.00,2013-02-26 08:44:00,
2013-02-26 00:49:00,26.9,14.3,30.12,NE,38,4.0,8.0,58,0.00,,---,0.00,VWS V14.00,2013-02-26 08:49:00,
2013-02-26 00:54:00,27.0,14.4,30.12,NE,39,0.0,6.0,58,0.00,,---,0.00,VWS V14.00,2013-02-26 08:54:00,
2013-02-26 00:59:00,27.2,14.6,30.12,NE,39,0.0,0.0,58,0.00,,---,0.00,VWS V14.00,2013-02-26 08:59:00,
2013-02-26 01:04:00,27.1,14.5,30.12,NE,41,4.0,8.0,58,0.00,,---,0.00,VWS V14.00,2013-02-26 09:04:00,
2013-02-26 01:09:00,27.1,14.9,30.12,NE,41,0.0,6.0,60,0.00,,---,0.00,VWS V14.00,2013-02-26 09:09:00,
2013-02-26 01:14:00,27.6,15.4,30.12,NE,42,0.0,0.0,60,0.00,,---,0.00,VWS V14.00,2013-02-26 09:14:00,
2013-02-26 01:19:00,27.7,15.1,30.13,NE,45,6.0,7.0,58,0.00,,---,0.00,VWS V14.00,2013-02-26 09:19:00,
2013-02-26 01:24:00,27.7,15.1,30.13,NE,45,0.0,7.0,58,0.00,,---,0.00,VWS V14.00,2013-02-26 09:24:00,
2013-02-26 01:29:00,27.9,15.2,30.13,NE,45,0.0,0.0,58,0.00,,---,0.00,VWS V14.00,2013-02-26 09:29:00,
2013-02-26 01:34:00,27.6,15.0,30.13,NE,45,0.0,0.0,58,0.00,,---,0.00,VWS V14.00,2013-02-26 09:34:00,
2013-02-26 01:39:00,26.9,14.3,30.14,NE,45,0.0,5.0,58,0.00,,---,0.00,VWS V14.00,2013-02-26 09:39:00,
2013-02-26 01:44:00,26.0,13.8,30.14,NE,45,0.0,0.0,60,0.00,,---,0.00,VWS V14.00,2013-02-26 09:44:00,
2013-02-26 01:49:00,25.8,14.0,30.14,NE,45,0.0,0.0,60,0.00,,---,0.00,VWS V14.00,2013-02-26 09:49:00,
2013-02-26 01:54:00,26.5,14.7,30.14,NE,45,0.0,0.0,60,0.00,,---,0.00,VWS V14.00,2013-02-26 09:54:00,
2013-02-26 01:59:00,27.0,14.4,30.14,NE,45,0.0,0.0,58,0.00,,---,0.00,VWS V14.00,2013-02-26 09:59:00,
2013-02-26 02:04:00,27.3,13.9,30.14,NE,45,0.0,0.0,56,0.00,,---,0.00,VWS V14.00,2013-02-26 10:04:00,
2013-02-26 02:09:00,27.5,13.7,30.14,NE,45,0.0,0.0,56,0.00,,---,0.00,VWS V14.00,2013-02-26 10:09:00,
2013-02-26 02:14:00,27.5,13.3,30.14,NE,45,0.0,0.0,54,0.00,,---,0.00,VWS V14.00,2013-02-26 10:14:00,
2013-02-26 02:19:00,27.5,12.8,30.15,NE,45,0.0,0.0,54,0.00,,---,0.00,VWS V14.00,2013-02-26 10:19:00,
2013-02-26 02:24:00,27.6,12.9,30.15,NE,45,0.0,0.0,54,0.00,,---,0.00,VWS V14.00,2013-02-26 10:24:00,
2013-02-26 02:29:00,26.8,13.0,30.15,NE,45,0.0,0.0,56,0.00,,---,0.00,VWS V14.00,2013-02-26 10:29:00,
2013-02-26 02:34:00,25.9,13.8,30.14,NE,45,0.0,0.0,60,0.00,,---,0.00,VWS V14.00,2013-02-26 10:34:00,
2013-02-26 02:39:00,25.5,13.8,30.14,NE,45,0.0,0.0,60,0.00,,---,0.00,VWS V14.00,2013-02-26 10:39:00,
2013-02-26 02:44:00,25.3,13.9,30.14,NE,45,0.0,0.0,62,0.00,,---,0.00,VWS V14.00,2013-02-26 10:44:00,
2013-02-26 02:49:00,25.0,14.0,30.15,NE,45,0.0,0.0,62,0.00,,---,0.00,VWS V14.00,2013-02-26 10:49:00,
2013-02-26 02:54:00,24.4,13.8,30.15,NE,45,0.0,0.0,64,0.00,,---,0.00,VWS V14.00,2013-02-26 10:54:00,
2013-02-26 02:59:00,24.5,13.5,30.15,NE,45,0.0,7.0,62,0.00,,---,0.00,VWS V14.00,2013-02-26 10:59:00,
2013-02-26 03:09:00,24.5,13.5,30.15,NE,45,0.0,0.0,62,0.00,,---,0.00,VWS V14.00,2013-02-26 11:09:00,
2013-02-26 03:19:00,25.0,13.3,30.15,NE,45,0.0,0.0,60,0.00,,---,0.00,VWS V14.00,2013-02-26 11:19:00,
2013-02-26 03:24:00,25.6,13.1,30.15,NE,45,0.0,0.0,58,0.00,,---,0.00,VWS V14.00,2013-02-26 11:24:00,
2013-02-26 03:29:00,26.0,12.7,30.15,NE,45,0.0,0.0,56,0.00,,---,0.00,VWS V14.00,2013-02-26 11:29:00,
2013-02-26 03:34:00,26.3,12.9,30.15,NE,45,0.0,0.0,56,0.00,,---,0.00,VWS V14.00,2013-02-26 11:34:00,
2013-02-26 03:44:00,26.5,11.9,30.15,NE,45,0.0,0.0,54,0.00,,---,0.00,VWS V14.00,2013-02-26 11:44:00,
2013-02-26 03:49:00,26.5,12.3,30.15,NE,45,0.0,0.0,54,0.00,,---,0.00,VWS V14.00,2013-02-26 11:49:00,
2013-02-26 03:59:00,26.6,11.6,30.15,NE,45,0.0,0.0,52,0.00,,---,0.00,VWS V14.00,2013-02-26 11:59:00,
2013-02-26 04:04:00,27.0,11.5,30.15,NE,45,0.0,0.0,52,0.00,,---,0.00,VWS V14.00,2013-02-26 12:04:00,
2013-02-26 04:14:00,27.5,11.1,30.16,NE,45,0.0,0.0,50,0.00,,---,0.00,VWS V14.00,2013-02-26 12:14:00,
2013-02-26 04:19:00,27.6,10.7,30.16,NE,45,0.0,0.0,48,0.00,,---,0.00,VWS V14.00,2013-02-26 12:19:00,
2013-02-26 04:24:00,27.4,11.0,30.16,NE,45,0.0,0.0,50,0.00,,---,0.00,VWS V14.00,2013-02-26 12:24:00,
2013-02-26 04:29:00,26.8,11.3,30.16,NE,45,0.0,0.0,52,0.00,,---,0.00,VWS V14.00,2013-02-26 12:29:00,
2013-02-26 04:34:00,25.9,11.8,30.16,NE,45,0.0,0.0,54,0.00,,---,0.00,VWS V14.00,2013-02-26 12:34:00,
2013-02-26 04:39:00,25.6,11.9,30.17,NE,45,0.0,0.0,56,0.00,,---,0.00,VWS V14.00,2013-02-26 12:39:00,
2013-02-26 04:44:00,24.9,12.0,30.17,NE,45,0.0,0.0,58,0.00,,---,0.00,VWS V14.00,2013-02-26 12:44:00,
2013-02-26 04:49:00,24.9,12.0,30.17,NE,45,0.0,0.0,58,0.00,,---,0.00,VWS V14.00,2013-02-26 12:49:00,
2013-02-26 04:54:00,24.7,11.8,30.17,NE,45,0.0,0.0,58,0.00,,---,0.00,VWS V14.00,2013-02-26 12:54:00,
2013-02-26 04:59:00,24.5,11.7,30.17,NE,45,0.0,0.0,58,0.00,,---,0.00,VWS V14.00,2013-02-26 12:59:00,
2013-02-26 05:04:00,24.3,11.5,30.17,NE,45,0.0,0.0,58,0.00,,---,0.00,VWS V14.00,2013-02-26 13:04:00,
2013-02-26 05:09:00,24.4,11.2,30.18,NE,45,0.0,0.0,56,0.00,,---,0.00,VWS V14.00,2013-02-26 13:09:00,
2013-02-26 05:14:00,23.8,11.0,30.18,NE,45,0.0,0.0,58,0.00,,---,0.00,VWS V14.00,2013-02-26 13:14:00,
2013-02-26 05:19:00,23.7,10.9,30.18,NE,45,0.0,0.0,58,0.00,,---,0.00,VWS V14.00,2013-02-26 13:19:00,
2013-02-26 05:24:00,23.3,10.9,30.18,NE,45,0.0,0.0,58,0.00,,---,0.00,VWS V14.00,2013-02-26 13:24:00,
2013-02-26 05:29:00,23.4,11.0,30.18,NE,45,0.0,0.0,58,0.00,,---,0.00,VWS V14.00,2013-02-26 13:29:00,
2013-02-26 05:39:00,24.1,11.3,30.19,NE,45,0.0,0.0,58,0.00,,---,0.00,VWS V14.00,2013-02-26 13:39:00,
2013-02-26 05:44:00,24.4,11.2,30.19,NE,45,0.0,0.0,56,0.00,,---,0.00,VWS V14.00,2013-02-26 13:44:00,
2013-02-26 05:54:00,23.5,10.7,30.19,NE,45,0.0,0.0,58,0.00,,---,0.00,VWS V14.00,2013-02-26 13:54:00,
2013-02-26 05:59:00,23.4,10.6,30.19,NE,45,0.0,0.0,58,0.00,,---,0.00,VWS V14.00,2013-02-26 13:59:00,
2013-02-26 06:09:00,23.5,10.7,30.19,NE,45,0.0,0.0,58,0.00,,---,0.00,VWS V14.00,2013-02-26 14:09:00,
2013-02-26 06:14:00,23.8,10.6,30.20,NE,45,0.0,0.0,56,0.00,,---,0.00,VWS V14.00,2013-02-26 14:14:00,
2013-02-26 06:19:00,23.8,10.6,30.19,NE,45,0.0,0.0,56,0.00,,---,0.00,VWS V14.00,2013-02-26 14:19:00,
2013-02-26 06:24:00,23.9,10.3,30.19,NE,45,0.0,0.0,56,0.00,,---,0.00,VWS V14.00,2013-02-26 14:24:00,
2013-02-26 06:29:00,23.9,10.3,30.20,NE,45,0.0,0.0,56,0.00,,---,0.00,VWS V14.00,2013-02-26 14:29:00,
2013-02-26 06:39:00,23.7,10.5,30.20,NE,45,0.0,0.0,56,0.00,,---,0.00,VWS V14.00,2013-02-26 14:39:00,
2013-02-26 06:44:00,23.0,10.2,30.20,NE,45,0.0,0.0,58,0.00,,---,0.00,VWS V14.00,2013-02-26 14:44:00,
2013-02-26 06:54:00,22.0,10.4,30.20,NE,45,0.0,0.0,60,0.00,,---,0.00,VWS V14.00,2013-02-26 14:54:00,
2013-02-26 07:04:00,22.1,10.9,30.21,NE,45,0.0,0.0,62,0.00,,---,0.00,VWS V14.00,2013-02-26 15:04:00,
2013-02-26 07:09:00,22.3,10.7,30.21,NE,45,0.0,0.0,60,0.00,,---,0.00,VWS V14.00,2013-02-26 15:09:00,
2013-02-26 07:19:00,23.6,11.6,30.21,NE,45,0.0,0.0,60,0.00,,---,0.00,VWS V14.00,2013-02-26 15:19:00,
2013-02-26 07:24:00,24.2,11.4,30.21,NE,45,0.0,0.0,58,0.00,,---,0.00,VWS V14.00,2013-02-26 15:24:00,
2013-02-26 07:29:00,24.2,11.0,30.21,NE,45,0.0,0.0,56,0.00,,---,0.00,VWS V14.00,2013-02-26 15:29:00,
2013-02-26 07:39:00,24.4,11.6,30.21,NE,45,0.0,8.0,58,0.00,,---,0.00,VWS V14.00,2013-02-26 15:39:00,
2013-02-26 07:49:00,25.0,11.7,30.21,NE,45,0.0,0.0,56,0.00,,---,0.00,VWS V14.00,2013-02-26 15:49:00,
2013-02-26 07:54:00,25.5,11.8,30.21,NE,45,0.0,0.0,56,0.00,,---,0.00,VWS V14.00,2013-02-26 15:54:00,
2013-02-26 07:59:00,25.9,12.2,30.21,NE,45,0.0,0.0,56,0.00,,---,0.00,VWS V14.00,2013-02-26 15:59:00,
2013-02-26 08:04:00,26.2,12.0,30.29,NE,45,0.0,0.0,54,0.00,,---,0.00,VWS V14.00,2013-02-26 16:04:00,
2013-02-26 08:09:00,26.7,12.5,30.29,NE,45,0.0,0.0,54,0.00,,---,0.00,VWS V14.00,2013-02-26 16:09:00,
2013-02-26 08:14:00,27.2,12.6,30.29,NE,45,0.0,0.0,54,0.00,,---,0.00,VWS V14.00,2013-02-26 16:14:00,
2013-02-26 08:19:00,27.4,12.3,30.29,NE,45,0.0,0.0,52,0.00,,---,0.00,VWS V14.00,2013-02-26 16:19:00,
2013-02-26 08:24:00,27.9,12.8,30.29,NE,45,0.0,0.0,52,0.00,,---,0.00,VWS V14.00,2013-02-26 16:24:00,
2013-02-26 08:29:00,28.2,12.6,30.29,NE,45,0.0,0.0,52,0.00,,---,0.00,VWS V14.00,2013-02-26 16:29:00,
2013-02-26 08:34:00,28.4,12.4,30.29,NE,45,6.0,10.0,50,0.00,,---,0.00,VWS V14.00,2013-02-26 16:34:00,
2013-02-26 08:39:00,29.0,12.9,30.29,NE,45,8.0,9.0,50,0.00,,---,0.00,VWS V14.00,2013-02-26 16:39:00,
2013-02-26 08:44:00,29.5,12.9,30.29,NE,45,7.0,10.0,50,0.00,,---,0.00,VWS V14.00,2013-02-26 16:44:00,
2013-02-26 08:49:00,29.7,12.7,30.29,NE,52,6.0,10.0,48,0.00,,---,0.00,VWS V14.00,2013-02-26 16:49:00,
2013-02-26 08:54:00,29.9,12.4,30.29,NE,54,2.0,10.0,48,0.00,,---,0.00,VWS V14.00,2013-02-26 16:54:00,
2013-02-26 09:04:00,30.6,13.0,30.30,ENE,57,8.0,11.0,48,0.00,,---,0.00,VWS V14.00,2013-02-26 17:04:00,
2013-02-26 09:14:00,31.3,12.7,30.30,ENE,57,5.0,10.0,46,0.00,,---,0.00,VWS V14.00,2013-02-26 17:14:00,
2013-02-26 09:19:00,31.6,12.5,30.29,ENE,57,8.0,9.0,44,0.00,,---,0.00,VWS V14.00,2013-02-26 17:19:00,
2013-02-26 09:24:00,31.7,12.0,30.29,ENE,57,7.0,10.0,44,0.00,,---,0.00,VWS V14.00,2013-02-26 17:24:00,
2013-02-26 09:29:00,31.6,11.9,30.29,NE,56,6.0,10.0,44,0.00,,---,0.00,VWS V14.00,2013-02-26 17:29:00,
2013-02-26 09:34:00,31.6,11.4,30.29,NE,56,2.0,6.0,42,0.00,,---,0.00,VWS V14.00,2013-02-26 17:34:00,
2013-02-26 09:44:00,31.7,11.5,30.29,ENE,57,4.0,9.0,42,0.00,,---,0.00,VWS V14.00,2013-02-26 17:44:00,
2013-02-26 09:49:00,32.0,11.2,30.29,NE,56,6.0,9.0,42,0.00,,---,0.00,VWS V14.00,2013-02-26 17:49:00,
2013-02-26 09:54:00,32.3,12.1,30.28,ENE,57,7.0,9.0,42,0.00,,---,0.00,VWS V14.00,2013-02-26 17:54:00,
2013-02-26 09:59:00,32.4,11.6,30.29,NE,56,5.0,10.0,42,0.00,,---,0.00,VWS V14.00,2013-02-26 17:59:00,
2013-02-26 10:04:00,32.4,11.6,30.28,NE,56,8.0,8.0,42,0.00,,---,0.00,VWS V14.00,2013-02-26 18:04:00,
2013-02-26 10:09:00,32.5,11.7,30.28,NE,52,2.0,10.0,42,0.00,,---,0.00,VWS V14.00,2013-02-26 18:09:00,
2013-02-26 10:14:00,32.9,11.5,30.28,NE,52,0.0,7.0,40,0.00,,---,0.00,VWS V14.00,2013-02-26 18:14:00,
2013-02-26 10:19:00,33.4,12.0,30.28,NE,52,6.0,8.0,40,0.00,,---,0.00,VWS V14.00,2013-02-26 18:19:00,
2013-02-26 10:24:00,33.8,11.8,30.28,NE,49,5.0,9.0,40,0.00,,---,0.00,VWS V14.00,2013-02-26 18:24:00,
2013-02-26 10:29:00,33.7,11.7,30.28,NNE,24,4.0,11.0,40,0.00,,---,0.00,VWS V14.00,2013-02-26 18:29:00,
2013-02-26 10:34:00,33.9,11.9,30.28,NNE,24,3.0,9.0,40,0.00,,---,0.00,VWS V14.00,2013-02-26 18:34:00,
2013-02-26 10:44:00,34.4,11.7,30.28,NNE,24,5.0,9.0,38,0.00,,---,0.00,VWS V14.00,2013-02-26 18:44:00,
2013-02-26 10:49:00,34.6,11.9,30.28,NNE,24,2.0,6.0,38,0.00,,---,0.00,VWS V14.00,2013-02-26 18:49:00,
2013-02-26 10:54:00,35.6,12.2,30.27,NNE,24,4.0,6.0,38,0.00,,---,0.00,VWS V14.00,2013-02-26 18:54:00,
2013-02-26 10:59:00,35.5,11.5,30.27,NNE,24,1.0,7.0,36,0.00,,---,0.00,VWS V14.00,2013-02-26 18:59:00,
2013-02-26 11:04:00,35.4,12.0,30.27,NNE,24,6.0,6.0,38,0.00,,---,0.00,VWS V14.00,2013-02-26 19:04:00,
2013-02-26 11:09:00,36.0,12.0,30.27,NNE,24,0.0,6.0,36,0.00,,---,0.00,VWS V14.00,2013-02-26 19:09:00,
2013-02-26 11:14:00,36.1,12.1,30.27,NNE,24,1.0,7.0,36,0.00,,---,0.00,VWS V14.00,2013-02-26 19:14:00,
2013-02-26 11:19:00,36.4,12.3,30.27,NNE,24,0.0,7.0,36,0.00,,---,0.00,VWS V14.00,2013-02-26 19:19:00,
2013-02-26 11:24:00,37.2,13.0,30.27,NNE,24,0.0,0.0,36,0.00,,---,0.00,VWS V14.00,2013-02-26 19:24:00,
2013-02-26 11:29:00,37.9,13.0,30.27,NNE,24,0.0,0.0,36,0.00,,---,0.00,VWS V14.00,2013-02-26 19:29:00,
2013-02-26 11:34:00,38.1,12.6,30.27,NNE,24,0.0,0.0,34,0.00,,---,0.00,VWS V14.00,2013-02-26 19:34:00,
2013-02-26 11:39:00,37.8,12.9,30.27,NNE,24,0.0,0.0,36,0.00,,---,0.00,VWS V14.00,2013-02-26 19:39:00,
2013-02-26 11:44:00,38.0,11.8,30.27,NNE,24,0.0,0.0,34,0.00,,---,0.00,VWS V14.00,2013-02-26 19:44:00,
2013-02-26 11:49:00,38.4,12.2,30.27,NNE,24,0.0,0.0,34,0.00,,---,0.00,VWS V14.00,2013-02-26 19:49:00,
2013-02-26 11:54:00,38.4,12.2,30.26,NNE,24,0.0,0.0,34,0.00,,---,0.00,VWS V14.00,2013-02-26 19:54:00,
2013-02-26 11:59:00,38.5,12.2,30.27,NNE,24,0.0,0.0,34,0.00,,---,0.00,VWS V14.00,2013-02-26 19:59:00,
2013-02-26 12:04:00,38.8,12.5,30.26,NNE,24,1.0,11.0,34,0.00,,---,0.00,VWS V14.00,2013-02-26 20:04:00,
2013-02-26 12:09:00,39.1,12.1,30.26,NNE,24,0.0,4.0,32,0.00,,---,0.00,VWS V14.00,2013-02-26 20:09:00,
2013-02-26 12:14:00,39.3,11.6,30.26,NNE,24,0.0,5.0,32,0.00,,---,0.00,VWS V14.00,2013-02-26 20:14:00,
2013-02-26 12:19:00,39.6,10.4,30.27,NNE,24,0.0,4.0,30,0.00,,---,0.00,VWS V14.00,2013-02-26 20:19:00,
2013-02-26 12:24:00,39.6,8.8,30.26,NNE,24,0.0,6.0,28,0.00,,---,0.00,VWS V14.00,2013-02-26 20:24:00,
2013-02-26 12:29:00,39.8,9.8,30.26,NNE,24,0.0,0.0,28,0.00,,---,0.00,VWS V14.00,2013-02-26 20:29:00,
2013-02-26 12:34:00,40.3,9.4,30.26,NNE,24,0.0,5.0,28,0.00,,---,0.00,VWS V14.00,2013-02-26 20:34:00,
2013-02-26 12:39:00,40.6,9.7,30.26,NNE,24,0.0,4.0,28,0.00,,---,0.00,VWS V14.00,2013-02-26 20:39:00,
2013-02-26 12:44:00,41.0,7.4,30.26,NNE,24,0.0,6.0,24,0.00,,---,0.00,VWS V14.00,2013-02-26 20:44:00,
2013-02-26 12:49:00,40.4,7.8,30.26,NNE,24,4.0,6.0,26,0.00,,---,0.00,VWS V14.00,2013-02-26 20:49:00,
2013-02-26 12:54:00,40.7,8.1,30.25,ENE,59,0.0,9.0,26,0.00,,---,0.00,VWS V14.00,2013-02-26 20:54:00,
2013-02-26 12:59:00,41.2,8.5,30.25,ENE,57,5.0,7.0,26,0.00,,---,0.00,VWS V14.00,2013-02-26 20:59:00,
2013-02-26 13:04:00,41.8,8.1,30.25,ENE,57,4.0,7.0,24,0.00,,---,0.00,VWS V14.00,2013-02-26 21:04:00,
2013-02-26 13:09:00,42.2,7.6,30.25,ENE,57,0.0,5.0,24,0.00,,---,0.00,VWS V14.00,2013-02-26 21:09:00,
2013-02-26 13:14:00,42.2,8.5,30.25,ENE,57,0.0,5.0,24,0.00,,---,0.00,VWS V14.00,2013-02-26 21:14:00,
2013-02-26 13:19:00,41.6,8.8,30.25,ENE,57,0.0,8.0,26,0.00,,---,0.00,VWS V14.00,2013-02-26 21:19:00,
2013-02-26 13:24:00,41.6,8.8,30.25,ENE,57,0.0,0.0,26,0.00,,---,0.00,VWS V14.00,2013-02-26 21:24:00,
2013-02-26 13:29:00,41.9,8.2,30.25,ENE,57,0.0,0.0,24,0.00,,---,0.00,VWS V14.00,2013-02-26 21:29:00,
2013-02-26 13:34:00,42.2,8.5,30.25,ENE,57,0.0,0.0,24,0.00,,---,0.00,VWS V14.00,2013-02-26 21:34:00,
2013-02-26 13:39:00,42.8,9.9,30.25,ENE,57,0.0,0.0,26,0.00,,---,0.00,VWS V14.00,2013-02-26 21:39:00,
2013-02-26 13:44:00,42.7,8.9,30.24,NE,55,0.0,9.0,24,0.00,,---,0.00,VWS V14.00,2013-02-26 21:44:00,
2013-02-26 13:49:00,42.2,9.4,30.24,NE,45,0.0,10.0,26,0.00,,---,0.00,VWS V14.00,2013-02-26 21:49:00,
2013-02-26 13:54:00,42.5,9.6,30.24,NE,46,0.0,5.0,26,0.00,,---,0.00,VWS V14.00,2013-02-26 21:54:00,
2013-02-26 13:59:00,43.3,10.3,30.24,NE,45,0.0,0.0,26,0.00,,---,0.00,VWS V14.00,2013-02-26 21:59:00,
2013-02-26 14:04:00,43.1,10.1,30.24,NE,45,0.0,10.0,26,0.00,,---,0.00,VWS V14.00,2013-02-26 22:04:00,
2013-02-26 14:09:00,42.8,9.9,30.24,NE,44,0.0,10.0,26,0.00,,---,0.00,VWS V14.00,2013-02-26 22:09:00,
2013-02-26 14:14:00,43.1,10.1,30.24,NE,44,0.0,7.0,26,0.00,,---,0.00,VWS V14.00,2013-02-26 22:14:00,
2013-02-26 14:19:00,43.5,10.5,30.23,NE,44,7.0,9.0,26,0.00,,---,0.00,VWS V14.00,2013-02-26 22:19:00,
2013-02-26 14:24:00,43.6,10.6,30.24,NE,42,6.0,8.0,26,0.00,,---,0.00,VWS V14.00,2013-02-26 22:24:00,
2013-02-26 14:29:00,43.0,9.1,30.23,NE,43,0.0,6.0,24,0.00,,---,0.00,VWS V14.00,2013-02-26 22:29:00,
2013-02-26 14:34:00,43.2,10.2,30.24,NE,36,5.0,13.0,26,0.00,,---,0.00,VWS V14.00,2013-02-26 22:34:00,
2013-02-26 14:39:00,43.5,10.5,30.24,NE,36,3.0,9.0,26,0.00,,---,0.00,VWS V14.00,2013-02-26 22:39:00,
2013-02-26 14:44:00,43.6,10.6,30.24,NE,36,6.0,10.0,26,0.00,,---,0.00,VWS V14.00,2013-02-26 22:44:00,
2013-02-26 14:49:00,43.4,10.4,30.24,NE,36,0.0,7.0,26,0.00,,---,0.00,VWS V14.00,2013-02-26 22:49:00,
2013-02-26 14:54:00,43.3,10.3,30.24,NE,36,0.0,9.0,26,0.00,,---,0.00,VWS V14.00,2013-02-26 22:54:00,
2013-02-26 14:59:00,43.6,10.6,30.24,NE,36,0.0,6.0,26,0.00,,---,0.00,VWS V14.00,2013-02-26 22:59:00,
2013-02-26 15:04:00,43.6,9.7,30.24,NE,36,5.0,8.0,24,0.00,,---,0.00,VWS V14.00,2013-02-26 23:04:00,
2013-02-26 15:09:00,43.9,9.9,30.24,NNE,32,0.0,9.0,24,0.00,,---,0.00,VWS V14.00,2013-02-26 23:09:00,
2013-02-26 15:14:00,44.1,9.2,30.24,NNE,28,0.0,9.0,24,0.00,,---,0.00,VWS V14.00,2013-02-26 23:14:00,
2013-02-26 15:19:00,43.9,9.0,30.24,NNE,28,4.0,9.0,24,0.00,,---,0.00,VWS V14.00,2013-02-26 23:19:00,
2013-02-26 15:24:00,43.7,7.9,30.24,NNE,28,0.0,11.0,22,0.00,,---,0.00,VWS V14.00,2013-02-26 23:24:00,
2013-02-26 15:29:00,43.9,8.0,30.24,North,10,6.0,13.0,22,0.00,,---,0.00,VWS V14.00,2013-02-26 23:29:00,
2013-02-26 15:34:00,44.0,7.1,30.24,North,350,10.0,14.0,22,0.00,,---,0.00,VWS V14.00,2013-02-26 23:34:00,
2013-02-26 15:39:00,44.2,7.3,30.24,North,349,7.0,13.0,22,0.00,,---,0.00,VWS V14.00,2013-02-26 23:39:00,
2013-02-26 15:44:00,44.2,7.3,30.24,North,350,12.0,12.0,22,0.00,,---,0.00,VWS V14.00,2013-02-26 23:44:00,
2013-02-26 15:49:00,44.1,8.2,30.24,North,349,8.0,14.0,22,0.00,,---,0.00,VWS V14.00,2013-02-26 23:49:00,
2013-02-26 15:54:00,43.9,8.0,30.25,NNW,342,10.0,15.0,22,0.00,,---,0.00,VWS V14.00,2013-02-26 23:54:00,
2013-02-26 15:59:00,43.8,7.9,30.25,NW,326,12.0,15.0,22,0.00,,---,0.00,VWS V14.00,2013-02-26 23:59:00,
2013-02-26 16:04:00,43.6,7.8,30.25,NW,317,9.0,18.0,22,0.00,,---,0.00,VWS V14.00,2013-02-27 00:04:00,
2013-02-26 16:09:00,43.5,8.6,30.25,NW,317,9.0,14.0,24,0.00,,---,0.00,VWS V14.00,2013-02-27 00:09:00,
2013-02-26 16:14:00,43.5,8.6,30.25,NW,317,10.0,16.0,24,0.00,,---,0.00,VWS V14.00,2013-02-27 00:14:00,
2013-02-26 16:19:00,43.2,8.4,30.25,NW,317,8.0,15.0,24,0.00,,---,0.00,VWS V14.00,2013-02-27 00:19:00,
2013-02-26 16:29:00,43.1,8.3,30.25,NW,317,10.0,13.0,24,0.00,,---,0.00,VWS V14.00,2013-02-27 00:29:00,
2013-02-26 16:34:00,43.0,9.1,30.25,NW,317,8.0,14.0,24,0.00,,---,0.00,VWS V14.00,2013-02-27 00:34:00,
2013-02-26 16:39:00,42.9,9.1,30.25,NW,317,14.0,16.0,24,0.00,,---,0.00,VWS V14.00,2013-02-27 00:39:00,
2013-02-26 16:44:00,42.4,8.6,30.25,NW,317,10.0,14.0,24,0.00,,---,0.00,VWS V14.00,2013-02-27 00:44:00,
2013-02-26 16:49:00,42.0,9.2,30.25,NW,317,12.0,15.0,26,0.00,,---,0.00,VWS V14.00,2013-02-27 00:49:00,
2013-02-26 16:54:00,41.6,8.8,30.25,NW,317,11.0,15.0,26,0.00,,---,0.00,VWS V14.00,2013-02-27 00:54:00,
2013-02-26 16:59:00,41.4,8.7,30.25,NW,317,8.0,13.0,26,0.00,,---,0.00,VWS V14.00,2013-02-27 00:59:00,
2013-02-26 17:04:00,41.1,9.3,30.25,NW,317,9.0,12.0,26,0.00,,---,0.00,VWS V14.00,2013-02-27 01:04:00,
2013-02-26 17:09:00,40.7,8.9,30.25,NW,317,11.0,13.0,26,0.00,,---,0.00,VWS V14.00,2013-02-27 01:09:00,
2013-02-26 17:14:00,40.4,9.5,30.25,NW,317,12.0,13.0,28,0.00,,---,0.00,VWS V14.00,2013-02-27 01:14:00,
2013-02-26 17:19:00,40.0,9.1,30.25,NW,317,10.0,14.0,28,0.00,,---,0.00,VWS V14.00,2013-02-27 01:19:00,
2013-02-26 17:24:00,39.7,8.9,30.25,NW,317,11.0,13.0,28,0.00,,---,0.00,VWS V14.00,2013-02-27 01:24:00,
2013-02-26 17:29:00,39.3,9.3,30.26,NW,317,10.0,13.0,28,0.00,,---,0.00,VWS V14.00,2013-02-27 01:29:00,
2013-02-26 17:34:00,39.0,9.1,30.26,NW,317,8.0,12.0,28,0.00,,---,0.00,VWS V14.00,2013-02-27 01:34:00,
2013-02-26 17:39:00,38.7,8.8,30.26,NW,317,7.0,12.0,28,0.00,,---,0.00,VWS V14.00,2013-02-27 01:39:00,
2013-02-26 17:44:00,38.4,9.3,30.26,NW,317,7.0,11.0,30,0.00,,---,0.00,VWS V14.00,2013-02-27 01:44:00,
2013-02-26 17:49:00,37.8,9.5,30.26,NW,317,7.0,9.0,30,0.00,,---,0.00,VWS V14.00,2013-02-27 01:49:00,
2013-02-26 17:54:00,36.9,8.7,30.26,NW,317,5.0,7.0,30,0.00,,---,0.00,VWS V14.00,2013-02-27 01:54:00,
2013-02-26 17:59:00,36.4,9.0,30.26,NW,317,6.0,9.0,32,0.00,,---,0.00,VWS V14.00,2013-02-27 01:59:00,
2013-02-26 18:04:00,35.6,9.0,30.27,NW,317,5.0,8.0,32,0.00,,---,0.00,VWS V14.00,2013-02-27 02:04:00,
2013-02-26 18:09:00,34.7,8.9,30.27,NW,317,6.0,10.0,34,0.00,,---,0.00,VWS V14.00,2013-02-27 02:09:00,
2013-02-26 18:19:00,34.3,9.2,30.27,NW,309,6.0,9.0,34,0.00,,---,0.00,VWS V14.00,2013-02-27 02:19:00,
2013-02-26 18:29:00,34.1,9.0,30.28,NW,309,8.0,9.0,34,0.00,,---,0.00,VWS V14.00,2013-02-27 02:29:00,
2013-02-26 18:34:00,34.1,9.0,30.28,NW,309,5.0,8.0,34,0.00,,---,0.00,VWS V14.00,2013-02-27 02:34:00,
2013-02-26 18:40:00,33.8,8.7,30.28,NW,309,4.0,7.0,34,0.00,,---,0.00,VWS V14.00,2013-02-27 02:40:00,
2013-02-26 18:49:00,33.1,8.8,30.28,NW,309,1.0,5.0,36,0.00,,---,0.00,VWS V14.00,2013-02-27 02:49:00,
2013-02-26 18:54:00,32.8,8.5,30.28,NW,309,2.0,3.0,36,0.00,,---,0.00,VWS V14.00,2013-02-27 02:54:00,
2013-02-26 19:00:00,32.3,8.7,30.28,NW,309,3.0,4.0,36,0.00,,---,0.00,VWS V14.00,2013-02-27 03:00:00,
2013-02-26 19:09:00,32.7,9.0,30.28,NW,309,2.0,5.0,36,0.00,,---,0.00,VWS V14.00,2013-02-27 03:09:00,
2013-02-26 19:14:00,32.8,9.1,30.29,NW,309,3.0,5.0,36,0.00,,---,0.00,VWS V14.00,2013-02-27 03:14:00,
2013-02-26 19:19:00,31.9,8.3,30.29,NW,309,5.0,7.0,36,0.00,,---,0.00,VWS V14.00,2013-02-27 03:19:00,
2013-02-26 19:29:00,31.0,8.1,30.29,NW,309,5.0,5.0,38,0.00,,---,0.00,VWS V14.00,2013-02-27 03:29:00,
2013-02-26 19:34:00,30.6,8.9,30.29,NW,309,5.0,5.0,40,0.00,,---,0.00,VWS V14.00,2013-02-27 03:34:00,
2013-02-26 19:39:00,30.5,9.4,30.29,NW,309,4.0,5.0,40,0.00,,---,0.00,VWS V14.00,2013-02-27 03:39:00,
2013-02-26 19:44:00,30.6,9.4,30.29,NW,309,1.0,5.0,40,0.00,,---,0.00,VWS V14.00,2013-02-27 03:44:00,
2013-02-26 19:49:00,31.0,9.2,30.29,NW,309,0.0,1.0,40,0.00,,---,0.00,VWS V14.00,2013-02-27 03:49:00,
2013-02-26 19:54:00,31.2,8.9,30.29,NW,309,0.0,0.0,38,0.00,,---,0.00,VWS V14.00,2013-02-27 03:54:00,
2013-02-26 19:59:00,31.4,9.6,30.29,NW,309,4.0,5.0,40,0.00,,---,0.00,VWS V14.00,2013-02-27 03:59:00,
2013-02-26 20:04:00,30.9,9.1,30.30,NW,309,5.0,5.0,40,0.00,,---,0.00,VWS V14.00,2013-02-27 04:04:00,
2013-02-26 20:10:00,31.0,9.2,30.30,NW,309,2.0,6.0,40,0.00,,---,0.00,VWS V14.00,2013-02-27 04:10:00,
2013-02-26 20:19:00,31.6,9.2,30.29,NW,309,2.0,5.0,38,0.00,,---,0.00,VWS V14.00,2013-02-27 04:19:00,
2013-02-26 20:24:00,31.7,9.3,30.29,NW,309,5.0,5.0,38,0.00,,---,0.00,VWS V14.00,2013-02-27 04:24:00,
2013-02-26 20:29:00,31.6,9.2,30.29,NW,309,5.0,5.0,38,0.00,,---,0.00,VWS V14.00,2013-02-27 04:29:00,
2013-02-26 20:34:00,31.7,9.3,30.29,NW,309,4.0,6.0,38,0.00,,---,0.00,VWS V14.00,2013-02-27 04:34:00,
2013-02-26 20:39:00,31.8,8.2,30.29,NW,309,5.0,6.0,36,0.00,,---,0.00,VWS V14.00,2013-02-27 04:39:00,
2013-02-26 20:44:00,31.7,7.5,30.29,NW,309,4.0,6.0,36,0.00,,---,0.00,VWS V14.00,2013-02-27 04:44:00,
2013-02-26 20:49:00,31.4,7.8,30.30,NW,309,5.0,6.0,36,0.00,,---,0.00,VWS V14.00,2013-02-27 04:49:00,
2013-02-26 20:55:00,31.1,7.6,30.30,NW,309,1.0,6.0,36,0.00,,---,0.00,VWS V14.00,2013-02-27 04:55:00,
2013-02-26 21:04:00,30.6,7.7,30.30,NW,309,5.0,6.0,38,0.00,,---,0.00,VWS V14.00,2013-02-27 05:04:00,
2013-02-26 21:09:00,30.5,7.6,30.30,NW,309,4.0,8.0,38,0.00,,---,0.00,VWS V14.00,2013-02-27 05:09:00,
2013-02-26 21:14:00,30.3,7.5,30.30,NW,309,5.0,7.0,38,0.00,,---,0.00,VWS V14.00,2013-02-27 05:14:00,
2013-02-26 21:19:00,30.2,7.9,30.30,NW,309,4.0,6.0,38,0.00,,---,0.00,VWS V14.00,2013-02-27 05:19:00,
2013-02-26 21:24:00,30.2,8.5,30.30,NW,309,3.0,6.0,40,0.00,,---,0.00,VWS V14.00,2013-02-27 05:24:00,
2013-02-26 21:30:00,30.4,8.7,30.30,NW,309,6.0,7.0,40,0.00,,---,0.00,VWS V14.00,2013-02-27 05:30:00,
2013-02-26 21:39:00,30.5,8.8,30.30,NW,309,6.0,7.0,40,0.00,,---,0.00,VWS V14.00,2013-02-27 05:39:00,
2013-02-26 21:45:00,30.7,9.0,30.30,NW,309,4.0,6.0,40,0.00,,---,0.00,VWS V14.00,2013-02-27 05:45:00,
2013-02-26 21:54:00,29.2,7.6,30.30,NW,309,4.0,5.0,40,0.00,,---,0.00,VWS V14.00,2013-02-27 05:54:00,
2013-02-26 21:59:00,28.8,7.3,30.30,NW,309,4.0,6.0,40,0.00,,---,0.00,VWS V14.00,2013-02-27 05:59:00,
2013-02-26 22:04:00,28.7,7.2,30.30,NW,309,6.0,6.0,40,0.00,,---,0.00,VWS V14.00,2013-02-27 06:04:00,
2013-02-26 22:09:00,28.1,7.2,30.30,NW,309,5.0,7.0,40,0.00,,---,0.00,VWS V14.00,2013-02-27 06:09:00,
2013-02-26 22:14:00,27.7,7.3,30.30,NW,309,4.0,6.0,42,0.00,,---,0.00,VWS V14.00,2013-02-27 06:14:00,
2013-02-26 22:19:00,28.1,7.2,30.30,NW,309,5.0,6.0,40,0.00,,---,0.00,VWS V14.00,2013-02-27 06:19:00,
2013-02-26 22:24:00,28.7,7.7,30.30,NW,309,5.0,6.0,40,0.00,,---,0.00,VWS V14.00,2013-02-27 06:24:00,
2013-02-26 22:30:00,29.1,7.5,30.30,NW,309,6.0,6.0,40,0.00,,---,0.00,VWS V14.00,2013-02-27 06:30:00,
2013-02-26 22:35:00,28.8,7.3,30.30,NW,309,4.0,6.0,40,0.00,,---,0.00,VWS V14.00,2013-02-27 06:35:00,
2013-02-26 22:44:00,25.9,7.2,30.30,NW,309,3.0,5.0,44,0.00,,---,0.00,VWS V14.00,2013-02-27 06:44:00,
2013-02-26 22:49:00,25.4,7.3,30.30,NW,309,5.0,6.0,46,0.00,,---,0.00,VWS V14.00,2013-02-27 06:49:00,
2013-02-26 22:54:00,25.4,7.8,30.30,NW,309,2.0,6.0,46,0.00,,---,0.00,VWS V14.00,2013-02-27 06:54:00,
2013-02-26 22:59:00,25.4,7.8,30.30,NW,309,4.0,6.0,46,0.00,,---,0.00,VWS V14.00,2013-02-27 06:59:00,
2013-02-26 23:04:00,25.4,7.8,30.30,NW,309,4.0,6.0,46,0.00,,---,0.00,VWS V14.00,2013-02-27 07:04:00,
2013-02-26 23:09:00,25.3,7.7,30.30,NW,309,6.0,7.0,46,0.00,,---,0.00,VWS V14.00,2013-02-27 07:09:00,
2013-02-26 23:15:00,25.2,7.6,30.29,NW,309,4.0,6.0,46,0.00,,---,0.00,VWS V14.00,2013-02-27 07:15:00,
2013-02-26 23:24:00,24.7,7.6,30.29,NW,309,2.0,5.0,48,0.00,,---,0.00,VWS V14.00,2013-02-27 07:24:00,
2013-02-26 23:29:00,24.2,7.6,30.29,NW,309,4.0,5.0,48,0.00,,---,0.00,VWS V14.00,2013-02-27 07:29:00,
2013-02-26 23:35:00,24.6,7.5,30.29,NW,309,2.0,5.0,48,0.00,,---,0.00,VWS V14.00,2013-02-27 07:35:00,
2013-02-26 23:40:00,25.4,7.8,30.29,NW,309,3.0,5.0,46,0.00,,---,0.00,VWS V14.00,2013-02-27 07:40:00,
2013-02-26 23:45:00,25.6,7.9,30.29,NW,309,4.0,4.0,46,0.00,,---,0.00,VWS V14.00,2013-02-27 07:45:00,
2013-02-26 23:55:00,26.4,7.2,30.29,NW,309,4.0,6.0,44,0.00,,---,0.00,VWS V14.00,2013-02-27 07:55:00,